Starlink 33809

operational
NORAD ID: 63508 Int'l Des: 2025-071 Owner: SPXS Country: US Constellation: starlink
LEOCIRCULAR

Starlink 33809について

説明を読み込み中...

リアルタイム位置

3D地球を読み込み中...

次回通過

高度履歴

Altitude vs Time

uPlot chart will show altitude changes over time

軌道要素

1 63508U 25071R 25350.75322967 .00018644 00000-0 63985-3 0 9990
2 63508 53.1597 164.9984 0001721 92.1397 267.9801 15.30209087 40010
Epoch: Dec 16, 2025 • Age: 17 hours

現在のステータス

高度 490.2 km
速度 7.62 km/s
衛星直下点 -42.17°S, 133.15°W
打ち上げ日 Apr 7, 2025
運用期間 0.6 years
タイプ internet

技術仕様

分類 Payload
質量 575.00 kg
乾燥質量 530.00 kg
総質量 575.00 kg
長さ 0.30 m
直径 4.10 m
スパン 29.00 m
形状 Box + pan
製造者 SPXS
バスタイプ Starlink V2MO
フェーズステータス In Orbit
所有者/国 SPXS/US

大規模コンステレーション

Loading constellations...